Location: Newark
(37.8333°N, 119.5000°W)
Time: 02:13:28
(UTC+00:00)

Courier 1B - All Passes

Search period start: 25 August 2019 00:00
Search period end: 04 September 2019 00:00
Orbit: 962 x 1209 km, 28.3° (Epoch: 24 August)

Date Brightness Start Highest point End Pass type
(mag) Time Alt. Az. Time Alt. Az. Time Alt. Az.
25 Aug - 00:28:53 10° SW 00:34:39 28° SSE 00:40:10 10° ESE daylight
25 Aug - 02:21:57 10° WSW 02:28:04 37° S 02:33:58 10° ESE daylight
25 Aug - 04:15:54 10° WSW 04:21:25 29° SSW 04:26:52 10° SE visible
25 Aug - 06:11:32 10° SW 06:14:31 13° SSW 06:17:31 10° S visible
25 Aug - 23:35:30 10° SSW 23:41:02 24° SSE 23:46:20 10° ESE daylight
26 Aug - 01:28:14 10° WSW 01:34:27 36° S 01:40:23 10° ESE daylight
26 Aug - 03:22:02 10° WSW 03:27:52 33° S 03:33:33 10° SE visible
26 Aug - 05:16:55 10° WSW 05:21:03 18° SSW 05:25:08 10° SSE visible
26 Aug - 22:42:17 10° SSW 22:47:25 21° SSE 22:52:21 10° ESE daylight
27 Aug - 00:34:32 10° SW 00:40:49 34° S 00:46:46 10° ESE daylight
27 Aug - 02:28:10 10° WSW 02:34:17 35° S 02:40:09 10° ESE daylight
27 Aug - 04:22:40 10° WSW 04:27:33 22° SSW 04:32:19 10° SSE visible
27 Aug - 21:49:20 10° SSW 21:53:47 17° SSE 21:58:05 10° ESE daylight
27 Aug - 23:40:54 10° SW 23:47:09 32° SSE 23:53:06 10° ESE daylight
28 Aug - 01:34:20 10° WSW 01:40:40 37° S 01:46:41 10° ESE daylight
28 Aug - 03:28:34 10° WSW 03:34:00 26° SSW 03:39:17 10° SE visible
28 Aug - 05:25:56 10° SW 05:27:03 10° SSW 05:28:08 10° SSW visible
28 Aug - 20:56:54 10° S 21:00:09 13° SSE 21:03:20 10° SE daylight
28 Aug - 22:47:21 10° SW 22:53:30 29° SSE 22:59:21 10° ESE daylight
29 Aug - 00:40:30 10° WSW 00:47:01 38° S 00:53:10 10° ESE daylight
29 Aug - 02:34:34 10° WSW 02:40:28 31° SSW 02:46:06 10° SE daylight
29 Aug - 04:30:09 10° WSW 04:33:34 15° SSW 04:36:56 10° S visible
29 Aug - 21:53:56 10° SSW 21:59:49 25° SSE 22:05:27 10° ESE daylight
29 Aug - 23:46:42 10° WSW 23:53:20 37° S 23:59:36 10° ESE daylight
30 Aug - 01:40:36 10° WSW 01:46:51 34° S 01:52:48 10° SE daylight
30 Aug - 03:35:32 10° WSW 03:40:04 19° SSW 03:44:29 10° SSE visible
30 Aug - 21:00:42 10° SSW 21:06:08 21° SSE 21:11:23 10° ESE daylight
30 Aug - 22:52:57 10° SW 22:59:37 36° S 23:05:57 10° ESE daylight
31 Aug - 00:46:40 10° WSW 00:53:12 37° S 00:59:24 10° ESE daylight
31 Aug - 02:41:14 10° WSW 02:46:33 24° SSW 02:51:40 10° SSE daylight
31 Aug - 20:07:47 10° SSW 20:12:27 17° SSE 20:17:01 10° ESE daylight
31 Aug - 21:59:17 10° SW 22:05:54 33° SSE 22:12:13 10° ESE daylight
31 Aug - 23:52:45 10° WSW 23:59:31 39° S 00:05:54 10° ESE daylight
01 Sep - 01:47:04 10° WSW 01:52:58 28° SSW 01:58:36 10° SE daylight
01 Sep - 03:43:43 10° SW 03:46:02 12° SSW 03:48:19 10° S visible
01 Sep - 19:15:25 10° S 19:18:47 13° SSE 19:22:06 10° SE daylight
01 Sep - 21:05:43 10° SW 21:12:10 29° SSE 21:18:22 10° ESE daylight
01 Sep - 22:58:51 10° WSW 23:05:47 40° S 23:12:20 10° ESE daylight
02 Sep - 00:52:59 10° WSW 00:59:21 33° SSW 01:05:23 10° SE daylight
02 Sep - 02:48:28 10° WSW 02:52:32 16° SSW 02:56:30 10° S visible
02 Sep - 20:12:20 10° SSW 20:18:26 25° SSE 20:24:22 10° ESE daylight
02 Sep - 22:05:02 10° WSW 22:12:01 39° S 22:18:41 10° ESE daylight
02 Sep - 23:58:57 10° WSW 00:05:41 37° S 00:12:01 10° SE daylight
03 Sep - 01:53:53 10° WSW 01:59:00 21° SSW 02:03:56 10° SSE daylight
03 Sep - 19:19:11 10° SSW 19:24:43 21° SSE 19:30:10 10° ESE daylight
03 Sep - 21:11:18 10° SW 21:18:15 36° S 21:24:57 10° ESE daylight
03 Sep - 23:04:58 10° WSW 23:11:57 39° S 23:18:33 10° ESE daylight
